{"data":{"norad_id":39285,"epoch":"2026-09-20T03:22:12.332928Z","epoch_age_seconds":45416,"freshness":"FRESH","line1":"1 39285U 13056A   26263.14042052  .00000146  00000+0  00000+0 0  9998","line2":"2 39285   0.0972 302.4461 0002381 242.3034 253.3596  1.00274840 47379","mean_motion":1.0027484,"eccentricity":0.0002381,"inclination_deg":0.0972,"raan_deg":302.4461,"arg_perigee_deg":242.3034,"mean_anomaly_deg":253.3596,"bstar":0,"rev_number":4737,"period_min":1436.0531515184,"perigee_km":35775.699336765,"apogee_km":35795.777774304,"semimajor_km":42163.875555534,"source":"CELESTRAK","updated_at":"2026-09-20T09:00:35.681857Z"}}